Location: Chochol
(49.7771°N, 14.9780°E)
Time: 13:20:25
(UTC+00:00)

Aureole 1 Rocket - Pass Details

Date: 09 April 2020
Orbit: 379 x 1379 km, 73.9° (Epoch: 02 June)

Event Time Altitude Azimuth Distance (km) Brightness Sun altitude
Rises 18:37:17 0° 197° (SSW) 4,162 7.2 -8.8°
Reaches altitude 10° 18:40:17 10° 196° (SSW) 3,081 6.5 -9.3°
Maximum altitude 18:47:32 79° 112° (ESE) 997 4.0 -10.4°
Drops below altitude 10° 18:53:06 10° 26° (NNE) 2,396 6.1 -11.2°
Sets 18:55:13 0° 26° (NNE) 3,190 6.7 -11.5°
